Regional Weather Roundup
Issued by NWS State College, PA

Home | Current Version | Previous Version | Text Only | Print | Product List | Glossary Off
Versions: 1 2 3 4 5 6 7 8 9 10 11 12 13 14 15 16 17 18 19 20 21 22 23 24 25 26 27 28 29 30 31 32 33 34 35 36 37 38 39 40 41 42 43 44 45 46 47 48 49 50

000
ASUS41 KCTP 241103
RWRCTP

REGIONAL WEATHER ROUNDUP
NATIONAL WEATHER SERVICE STATE COLLEGE PA
600 AM EST TUE JAN 24 2017

Note: "fair" indicates few or no clouds below 12,000 feet with no
significant weather and/or obstructions to visibility.

* = STATION THAT DOES NOT REPORT PRECIPITATION /E.G. RAIN...SNOW...ETC/
    THUNDER OR FOG.

PAZ002>004-007>009-013>016-020>023-029>032-241200-
WESTERN PENNSYLVANIA

CITY           SKY/WX    TMP DP  RH WIND       PRES   REMARKS
ERIE           CLOUDY    35  31  85 NE8       29.65R
MEADVILLE      CLOUDY    36  34  92 N3        29.60S
FRANKLIN*        N/A     36  32  87 CALM      29.60S
NEW CASTLE     MIX PCPN  37  37 100 W7        29.63S
BEAVER COUNTY  NOT AVBL
BUTLER*        CLOUDY    36  34  93 W5        29.63R
PITTSBURGH INT DRIZZLE   36  36 100 W8        29.62R
PITTSBURGH     LGT RAIN  35  32  88 W7        29.61R
INDIANA*       CLOUDY    34  34 100 NW3       29.60F
LATROBE        LGT RAIN  34  34 100 CALM      29.61S
WASHINGTON CO* CLOUDY    36  34  93 W3        29.63R
$$

PAZ004>006-010>012-017>019-024>028-033>037-041-042-045-046-049>053-241200-
CENTRAL PENNSYLVANIA

CITY           SKY/WX    TMP DP  RH WIND       PRES   REMARKS
BRADFORD       LGT SNOW  30  29  96 N3        29.55F FOG
DUBOIS         CLOUDY    33  30  88 N7        29.54F
CLEARFIELD     LGT SNOW  33  33 100 CALM      29.56R VSB 3/4
JOHNSTOWN      LGT SNOW  31  31 100 NW9       29.52S FOG
ALTOONA        FLURRIES  34  33  96 NW5       29.54S
STATE COLLEGE  LGT SNOW  32  32 100 CALM      29.55R
WILLIAMSPORT   FLURRIES  34  32  92 W9        29.54S
SELINSGROVE    LGT RAIN  35  33  92 NW3       29.53S
FT INDIANTOWN  CLOUDY    36  36 100 NW15G29   29.46R
CAPITAL CITY   CLOUDY    38  33  82 NW9       29.50R
HARRISBURG     CLOUDY    37  35  92 NW14      29.48S
YORK           CLOUDY    36  35  96 NW15      29.48R
$$

PAZ038>040-043-044-047-048-054-055-060>062-067>071-241200-
EASTERN PENNSYLVANIA

CITY           SKY/WX    TMP DP  RH WIND       PRES   REMARKS
SCRANTON       LGT SNOW  34  33  96 NE5       29.47S FOG
MOUNT POCONO   MIX PCPN  32  29  88 N13       29.40F
ALLENTOWN      CLOUDY    37  33  85 N8        29.44R
QUAKERTOWN*    CLOUDY    36  34  93 N13G18    29.42S
READING        CLOUDY    37  37 100 N8        29.44S
LANCASTER      CLOUDY    38  36  92 N12       29.45R
COATESVILLE    CLOUDY    37  36  93 N14G22    29.42R
POTTSTOWN      CLOUDY    36  34  92 N13       29.43R
BLUE BELL      CLOUDY    34  32  93 N8G17     29.39R
DOYLESTOWN     MIX PCPN  36  34  92 N10G21    29.39R
WILLOW GROVE   NOT AVBL
NORTH PHILA    MIX PCPN  37  35  92 N18       29.39S FOG
PHILADELPHIA   CLOUDY    37  34  89 N15       29.39R
$$




USA.gov is the U.S. government's official web portal to all federal, state and local government web resources and services.